Location: Newark
(55.1374°N, 21.8242°E)
Time: 12:46:52
(UTC+00:00)

Envisat - Pass Details

Date: 01 April 2020
Orbit: 764 x 766 km, 98.1° (Epoch: 02 June)

Event Time Altitude Azimuth Distance (km) Brightness Sun altitude
Rises 17:43:03 0° 219° (SW) 3,226 6.5 -5.3°
Reaches altitude 10° 17:46:25 10° 243° (WSW) 2,306 6.2 -5.8°
Maximum altitude 17:49:13 15° 276° (W) 2,001 6.6 -6.2°
Drops below altitude 10° 17:52:02 10° 310° (NW) 2,316 6.8 -6.6°
Sets 17:55:27 0° 334° (NNW) 3,249 7.0 -7.0°
